Wind_Speed
100 99 98 98 98 98 98 98 97 97 97 96 95 95 95 95 95 94 94 94 94 94 93 93 93 93 94 94 94 94 95 95 95 95 95 95 95 94 94 94 93 93 93 93 93 93 93 92 92 92 92 92 92 92 92 92 91 91 91 92 93 95 97 96 94 92 90 90 90 90 91 90 90 89 89 88 88 87 87 87 86 86 85 85 84 85
97 96 96 95 95 95 95 95 95 94 94 93 93 92 92 92 92 92 92 92 92 91 91 91 91 90 91 91 91 92 92 92 92 92 92 92 91 91 91 90 90 90 90 90 90 90 90 89 89 89 89 89 89 89 90 90 90 89 89 90 91 93 94 93 92 90 89 88 89 89 89 89 89 88 88 87 87 86 86 86 85 84 84 83 83 84
94 94 94 93 93 93 93 92 92 92 91 91 90 90 90 90 89 89 89 89 89 89 89 89 88 88 88 88 88 89 89 89 89 89 89 89 88 88 88 87 87 87 87 88 87 87 87 87 86 86 86 86 87 87 88 88 88 88 88 88 89 90 91 91 90 88 87 87 87 88 88 88 87 87 86 86 86 85 85 85 84 83 82 81 81 82
92 91 91 91 90 90 90 89 89 89 89 88 88 88 87 87 87 86 86 87 87 87 87 87 86 86 86 85 86 86 86 86 86 86 86 86 86 85 85 85 85 85 85 85 85 84 84 84 84 84 84 84 85 86 86 87 86 86 86 86 86 87 88 88 88 87 86 86 86 86 86 86 86 86 85 85 85 85 85 85 84 82 81 80 80 80
89 89 89 88 88 87 87 87 87 87 86 86 86 85 85 85 85 84 84 84 84 84 85 84 84 84 83 83 83 83 83 83 83 83 83 83 83 83 83 82 82 82 82 83 83 82 82 82 82 82 82 83 83 84 84 84 85 85 85 84 84 85 86 86 86 85 85 85 84 85 85 85 85 84 84 84 84 84 84 84 82 81 80 79 79 79
87 87 87 86 86 85 84 84 84 85 84 84 84 83 83 83 82 82 82 82 82 82 82 82 82 82 81 81 80 80 80 80 80 80 80 80 80 80 80 80 80 80 80 80 80 80 80 80 80 80 80 81 81 82 82 83 83 83 83 83 83 83 83 84 84 84 83 83 83 83 83 83 83 83 83 83 83 84 84 83 81 79 78 78 77 77
85 85 84 84 83 82 82 82 82 83 83 83 82 81 81 80 80 80 80 79 80 80 80 80 79 79 79 79 78 78 77 77 78 78 78 78 78 78 78 78 78 78 78 78 78 78 78 78 78 78 78 79 80 80 80 81 81 81 82 81 82 82 82 82 82 82 82 82 82 82 82 82 82 82 82 82 82 83 83 82 80 78 77 77 76 76
84 83 83 82 81 80 80 80 80 81 81 81 81 80 79 78 78 78 77 77 77 77 77 77 77 77 77 77 76 76 75 75 75 75 75 75 75 75 75 75 76 76 76 76 76 76 76 76 76 76 77 77 78 78 79 79 79 80 80 80 80 80 80 80 80 81 81 81 81 81 81 81 81 81 81 81 81 82 82 81 79 77 77 76 76 74
83 82 81 80 79 78 78 78 78 79 80 80 79 78 77 76 76 75 75 75 75 75 75 75 75 74 75 75 74 74 73 73 72 72 73 73 73 73 73 73 73 73 73 73 74 74 74 74 74 74 75 75 76 76 77 77 77 78 78 78 78 79 79 79 79 79 79 79 80 80 80 80 80 80 80 80 80 81 81 79 78 76 76 76 75 73
82 81 80 78 77 76 76 77 77 77 78 78 77 76 75 74 73 73 73 73 73 73 73 73 72 72 72 72 72 72 72 71 70 70 70 70 70 71 71 71 71 71 71 71 71 71 71 72 72 72 73 73 74 74 75 75 75 76 76 77 77 77 77 77 77 78 78 78 78 78 78 79 79 79 79 79 79 79 79 78 77 76 76 75 74 73
81 80 78 77 75 75 75 75 75 75 76 76 75 74 73 72 71 71 70 70 70 71 71 71 70 70 70 70 70 70 70 69 68 68 68 68 68 68 68 69 69 69 69 69 69 69 69 69 70 70 71 71 72 72 73 73 74 74 74 75 75 75 76 76 76 76 76 76 76 77 77 77 77 77 77 77 77 77 77 76 76 75 75 74 73 72
80 78 77 75 74 74 74 74 74 74 74 74 74 73 71 70 70 69 68 67 67 68 69 69 68 68 67 68 68 68 68 67 66 65 65 66 66 66 66 67 67 67 67 67 67 67 67 67 68 68 69 69 70 71 71 72 72 72 73 73 73 73 74 74 74 74 74 75 75 75 75 76 76 76 76 76 76 76 75 75 75 74 74 74 73 72
78 77 76 74 73 72 73 73 73 73 73 72 72 71 70 69 68 67 66 65 65 66 66 66 66 66 65 66 66 66 66 65 64 64 63 64 64 64 64 65 65 65 65 65 65 65 65 66 66 66 67 68 69 69 70 70 71 71 71 71 71 71 71 72 72 72 73 73 73 74 74 74 74 74 74 74 74 74 74 74 74 74 73 73 72 71
77 76 75 73 72 72 72 72 72 71 71 70 70 69 68 67 66 65 64 63 63 63 64 64 64 63 64 64 64 64 63 63 63 62 62 62 62 62 63 63 63 63 63 63 63 63 64 64 65 65 66 66 67 68 68 68 69 69 69 69 69 69 69 69 70 71 71 72 72 72 72 73 73 73 72 72 72 72 73 73 73 73 73 72 72 71
75 75 74 73 72 71 71 71 70 70 69 69 68 67 66 65 64 63 62 61 61 61 61 61 61 61 62 62 62 62 62 61 61 61 60 61 61 61 61 61 61 61 61 61 62 62 62 63 63 64 64 65 65 66 66 66 66 66 66 66 67 67 67 68 68 69 69 70 70 71 71 71 71 71 71 71 71 71 71 72 72 72 72 72 71 71
74 73 73 72 71 70 70 70 69 68 68 67 66 66 64 63 62 61 60 60 59 59 59 59 59 59 60 60 60 61 60 60 59 59 59 59 59 60 60 59 59 59 59 60 60 61 61 62 62 63 63 63 64 64 64 64 64 64 64 64 64 65 65 65 66 67 67 68 69 69 69 69 69 69 69 70 70 70 70 70 71 71 71 71 71 70
72 72 72 71 70 70 69 68 68 67 66 66 65 64 63 61 60 59 58 57 57 57 57 56 56 57 57 58 59 59 59 58 58 57 57 57 58 58 59 58 58 57 58 58 59 60 60 60 61 61 61 61 62 62 62 62 61 62 62 62 62 62 63 63 64 65 65 66 67 67 68 68 68 68 68 68 69 69 69 69 69 70 70 70 70 69
71 71 71 70 69 68 68 67 67 66 65 64 63 62 61 59 58 57 57 56 55 55 55 55 55 55 55 57 58 58 58 57 56 55 55 56 57 57 58 57 56 56 56 57 58 58 58 59 59 59 59 59 59 59 59 59 59 59 59 59 60 60 60 61 62 62 63 64 65 65 66 66 66 66 67 67 67 68 68 68 68 69 69 69 69 69
70 70 70 69 68 67 67 66 66 65 63 62 61 60 59 58 57 56 55 54 53 53 53 53 53 53 54 55 56 57 57 56 54 53 53 54 56 56 57 56 55 55 55 56 56 56 56 57 57 57 57 57 57 57 57 57 57 56 57 57 57 57 58 59 59 60 61 62 63 63 64 64 65 65 65 66 66 67 67 67 67 68 68 68 68 68
69 68 68 68 67 66 65 65 64 63 62 60 59 58 57 56 55 54 53 53 52 52 52 52 52 52 53 54 55 56 55 54 53 52 52 53 54 55 56 55 54 53 53 54 54 54 55 55 55 55 55 55 55 54 54 54 54 54 54 54 55 55 56 56 57 58 59 60 60 61 62 62 63 63 64 65 65 65 66 66 66 67 67 67 67 67
67 67 67 66 65 65 64 63 62 61 60 58 57 56 55 54 53 53 52 51 51 51 51 51 51 51 52 53 54 54 54 53 52 51 50 51 53 54 54 54 52 51 51 52 52 53 53 53 53 53 53 53 52 52 52 51 52 52 52 52 53 53 54 54 55 56 57 58 58 59 60 61 61 62 63 63 64 64 65 65 65 66 66 66 66 65
65 65 65 64 64 63 62 61 60 59 58 57 55 54 53 52 52 51 51 50 50 50 49 49 49 50 50 51 52 53 53 52 51 49 49 50 51 52 53 52 51 50 50 50 51 51 51 51 51 51 51 50 50 50 49 49 50 50 50 50 51 51 52 53 53 54 55 56 57 58 58 59 60 61 61 62 63 63 63 64 64 64 65 65 64 64
64 63 63 62 61 61 60 59 58 57 56 55 53 52 51 51 50 50 50 49 49 49 48 48 48 49 49 50 51 51 51 51 49 48 48 49 49 50 51 50 49 48 48 48 49 49 49 49 49 48 48 48 48 48 48 48 48 48 48 49 49 50 50 51 52 52 53 54 55 56 57 58 58 59 60 61 61 62 62 62 62 63 63 63 63 62
62 61 60 60 59 58 58 57 56 55 54 53 52 51 50 49 49 49 48 48 48 48 47 47 47 48 48 49 49 50 50 49 48 47 47 47 47 48 49 48 47 47 46 47 47 47 47 47 47 47 47 47 47 46 46 46 46 47 47 47 48 48 49 50 50 51 52 53 54 55 55 56 57 58 59 59 60 60 60 61 61 61 61 61 61 60
61 59 58 58 57 56 55 54 54 53 52 51 50 49 48 48 48 48 48 47 47 47 46 46 46 47 47 48 48 49 49 48 47 46 45 45 45 46 47 46 45 45 44 45 45 45 45 46 46 46 46 46 45 45 45 45 45 45 46 46 46 47 48 48 49 50 51 52 52 53 54 55 56 56 57 58 58 58 59 59 59 60 60 60 59 59
59 58 57 55 55 54 53 52 51 50 49 48 48 47 47 47 47 47 47 46 46 45 45 45 45 46 46 47 47 48 47 46 45 44 43 43 43 44 45 44 43 43 43 43 44 44 44 44 45 45 45 44 44 44 44 44 44 44 44 45 45 46 47 47 48 49 50 51 51 52 53 54 54 55 56 56 56 57 57 58 58 58 58 58 58 58
57 56 55 53 52 51 50 49 48 48 47 46 46 46 46 46 46 46 46 45 45 44 44 44 44 45 45 46 46 46 45 44 43 41 40 41 42 43 43 42 41 41 41 42 42 42 43 43 44 44 43 43 43 42 42 42 43 43 43 44 44 45 46 46 47 48 49 50 50 51 52 53 53 54 54 55 55 55 56 56 56 56 56 56 56 56
54 53 52 51 50 49 48 47 46 45 45 44 44 44 45 45 45 45 45 44 43 43 43 43 44 44 44 45 45 44 43 42 40 39 38 39 40 41 41 40 40 40 40 40 41 42 42 42 43 43 42 42 41 41 41 41 41 42 42 43 43 44 45 46 47 47 48 49 49 50 51 52 52 52 53 53 53 54 54 55 55 55 55 55 55 56
51 50 49 48 47 46 45 45 44 43 43 43 43 43 43 44 44 44 44 43 42 42 42 42 43 43 43 43 43 43 41 40 38 36 36 37 38 39 39 39 39 39 39 40 40 41 41 42 42 41 41 41 40 40 40 40 40 40 41 42 43 43 44 45 46 47 47 48 49 49 50 51 51 51 51 52 52 52 53 53 53 54 54 54 55 55
48 47 46 46 45 44 43 43 42 42 42 42 42 42 42 42 42 42 42 42 41 41 41 41 42 42 42 42 42 41 39 37 35 34 34 35 36 38 38 38 38 38 38 39 40 40 40 40 40 40 40 39 39 39 38 39 39 40 40 41 42 43 44 45 45 46 47 47 48 49 49 49 49 50 50 50 51 51 51 52 52 53 53 54 54 55
46 45 44 43 42 42 41 41 41 41 40 40 40 41 41 41 41 41 41 41 40 40 40 40 40 40 40 40 40 39 37 34 32 32 32 34 35 36 37 38 38 38 38 38 39 39 39 39 39 39 38 38 37 37 37 37 38 39 40 41 41 42 43 44 45 45 46 47 47 48 48 48 48 48 48 49 49 50 50 51 51 52 52 53 54 54
43 42 41 40 40 40 39 40 39 40 39 39 39 39 39 39 39 39 39 39 39 39 39 39 39 39 39 39 38 37 35 32 30 30 31 33 34 36 36 37 37 37 37 37 38 38 38 38 38 37 37 36 36 36 36 36 37 38 39 40 41 42 43 43 44 45 45 46 46 46 46 47 47 47 47 48 48 48 49 50 50 51 52 53 53 54
41 40 39 38 38 38 38 38 38 38 38 38 38 38 38 38 38 38 38 38 38 38 38 38 38 37 37 37 36 34 32 30 29 29 31 32 34 35 36 36 36 36 36 36 36 37 37 37 36 36 35 35 35 35 35 36 37 38 39 39 40 41 42 42 43 44 44 44 45 45 45 45 45 46 46 46 47 47 48 49 49 50 51 52 53 54
39 38 37 37 36 36 37 37 37 37 37 36 36 36 36 36 36 36 37 37 37 37 37 36 36 36 35 35 34 32 31 29 28 29 31 32 33 34 35 35 35 35 35 35 35 35 35 35 35 34 34 33 33 34 34 35 36 37 38 39 39 40 41 41 42 42 42 43 43 44 44 44 44 45 45 46 46 47 47 48 49 50 51 52 53 54
38 37 36 35 35 35 35 35 35 35 35 35 35 34 35 35 35 35 35 35 35 35 35 35 34 34 33 32 32 31 29 28 28 29 31 32 33 34 34 34 34 33 33 33 34 34 34 34 33 33 32 32 32 33 33 34 35 36 37 38 38 39 39 40 40 41 41 42 42 43 43 43 44 44 44 45 45 46 46 47 48 49 50 51 53 54
36 35 35 34 34 33 33 33 33 33 33 33 33 33 33 33 34 34 34 34 34 33 33 33 33 32 31 31 30 29 28 28 28 29 30 32 32 32 32 32 32 31 32 32 32 32 32 32 32 31 31 31 31 32 32 33 35 35 36 36 37 37 38 38 39 39 40 40 41 41 42 43 43 43 44 44 44 45 45 46 47 49 50 51 52 53
35 34 33 33 32 32 31 31 31 31 32 32 32 32 32 32 32 32 32 32 32 32 31 31 31 30 30 29 29 28 28 28 28 29 30 31 31 31 30 30 30 30 30 30 31 31 31 31 30 30 30 30 30 31 32 33 34 34 35 35 35 36 36 37 38 38 39 39 40 41 41 42 42 43 43 43 44 44 45 46 47 49 50 51 52 53
34 33 32 31 30 30 30 30 30 30 30 30 31 31 31 31 30 30 30 30 30 30 30 30 29 29 29 28 28 27 27 28 28 29 29 29 29 29 29 28 28 29 29 29 29 29 29 29 29 29 29 29 29 30 31 32 33 33 33 34 34 34 35 36 37 37 38 39 39 40 40 41 41 42 42 42 43 44 45 46 47 49 50 51 52 52
32 31 30 30 29 28 28 28 28 29 29 29 29 29 29 29 29 28 28 28 28 28 28 28 28 28 28 27 27 27 27 27 28 28 28 28 28 27 27 27 27 28 28 28 28 28 28 28 28 28 28 28 29 29 30 31 31 32 32 32 33 34 35 35 36 37 37 38 38 39 39 40 40 41 41 42 42 43 44 46 47 48 50 50 51 51
31 30 29 28 28 27 27 27 27 27 27 27 27 27 27 27 27 27 27 27 27 27 27 27 27 27 26 26 26 26 26 26 27 27 26 26 26 26 26 26 26 26 26 27 27 27 26 26 26 26 27 27 28 28 29 29 30 30 31 32 32 33 34 35 35 36 37 37 38 38 39 39 39 40 40 41 42 43 44 45 47 48 49 50 51 51
29 28 28 27 26 26 26 26 26 26 26 26 26 25 25 25 25 25 26 26 26 26 26 25 25 25 25 25 25 25 25 25 25 25 25 25 25 25 25 25 25 25 25 25 25 25 25 25 25 25 26 26 27 27 28 28 28 29 29 30 31 32 33 33 34 35 36 36 37 38 38 38 39 40 40 41 42 42 43 44 45 47 48 49 50 50
28 27 26 25 25 24 24 24 24 24 24 24 24 24 24 24 24 24 24 24 24 24 24 24 24 24 24 24 24 24 24 24 24 24 24 23 23 23 23 24 24 24 24 24 24 24 24 24 24 24 24 25 25 26 26 26 27 27 28 28 29 30 31 32 33 34 35 36 36 37 37 38 39 39 40 40 41 42 42 43 44 45 47 47 48 48
26 25 25 24 23 23 23 22 22 22 22 22 23 23 23 23 23 23 23 23 23 23 23 23 23 23 23 23 23 23 23 23 23 22 22 22 22 22 22 22 22 22 22 22 22 23 23 23 23 23 23 23 24 24 25 25 26 26 26 27 27 29 30 31 32 33 33 34 35 36 36 37 38 38 39 40 40 41 42 42 43 44 45 46 46 46
25 24 23 22 22 22 21 21 21 21 21 21 21 21 21 21 21 21 21 21 21 21 21 21 21 22 21 21 22 21 21 21 21 21 21 21 21 21 21 21 21 21 21 22 22 22 22 22 22 22 22 22 23 23 24 24 24 25 25 26 27 27 28 29 30 31 32 32 34 34 35 36 37 37 38 39 40 40 41 42 43 43 44 44 45 45
23 22 22 21 21 20 20 20 20 20 20 20 20 20 20 20 20 20 20 20 20 20 20 20 20 20 20 20 20 20 20 20 20 20 20 20 20 20 20 20 20 21 21 21 21 21 21 21 21 22 22 22 22 22 23 23 23 24 24 25 26 26 27 28 29 29 30 31 32 33 34 35 36 37 38 39 39 40 41 41 42 42 43 43 43 44
22 21 20 20 19 19 19 19 19 18 18 18 18 18 19 19 19 19 19 19 19 19 19 19 19 18 18 18 18 18 18 18 18 19 19 19 19 19 20 20 20 20 20 20 21 21 21 21 21 21 21 22 22 22 22 23 23 23 24 25 25 26 27 28 28 29 29 30 31 32 33 34 35 36 37 38 38 39 40 40 41 41 42 42 43 43
20 19 19 18 18 18 18 17 17 17 17 17 17 17 17 17 17 17 18 18 17 18 17 17 17 17 17 17 17 17 17 17 18 18 18 18 19 19 19 19 19 20 20 20 20 20 20 21 21 21 21 21 22 22 22 22 23 23 24 24 25 25 26 27 28 29 29 30 30 31 32 33 34 35 35 36 37 38 38 39 40 40 41 41 42 42
18 18 17 17 17 16 16 16 16 16 16 16 16 16 16 16 16 16 16 16 16 16 16 16 16 16 16 16 16 17 17 17 17 17 18 18 18 18 18 19 19 19 19 19 20 20 20 20 20 20 20 20 21 21 22 22 22 23 23 24 25 25 26 27 27 28 29 29 30 31 31 32 33 33 34 35 35 36 37 38 39 39 39 40 41 41
17 16 16 16 15 15 15 15 15 15 15 15 15 15 15 15 15 15 15 15 15 15 15 15 15 15 16 16 16 17 17 17 17 17 17 17 17 18 18 18 18 18 18 19 19 19 19 19 19 19 20 20 20 20 21 21 22 22 23 24 24 25 25 26 27 27 28 28 29 30 30 31 31 32 33 33 34 35 36 37 38 38 39 39 40 41
16 15 15 14 14 14 14 14 14 14 14 14 14 14 14 14 14 14 14 14 14 14 15 15 15 15 16 16 16 16 17 17 17 17 17 17 17 17 17 17 17 17 17 18 18 18 18 18 19 19 19 19 19 20 20 21 21 22 23 23 24 24 25 25 26 27 27 28 28 29 30 30 31 32 32 33 34 35 35 36 37 38 39 39 40 41
15 14 14 13 13 13 13 13 13 13 13 13 13 14 14 14 14 14 14 14 14 14 15 15 15 15 16 16 16 16 16 16 16 16 17 17 17 17 17 17 17 17 17 17 17 17 18 18 18 19 19 19 20 20 20 20 21 21 22 23 23 24 24 25 26 26 27 28 28 29 30 31 31 32 33 34 34 35 36 36 37 38 39 40 41 41
Wind_Direction
292 291 290 289 289 288 287 286 286 285 284 283 282 281 281 280 279 279 278 277 277 276 275 275 274 274 273 273 272 272 271 271 271 270 270 269 269 269 269 268 268 268 267 267 266 266 266 265 265 265 265 264 264 264 263 263 262 261 261 261 261 261 262 262 262 262 261 261 260 260 260 260 260 260 260 259 259 259 259 259 259 259 260 261 261 262
292 291 291 290 289 288 287 286 285 285 284 283 282 282 281 280 279 279 278 278 277 276 276 275 274 274 273 273 272 272 271 271 271 270 270 269 269 269 268 268 268 267 267 266 266 266 265 265 264 264 264 264 263 263 262 262 261 260 260 259 259 260 260 261 261 261 260 260 259 259 259 259 259 259 259 259 258 258 258 258 258 258 259 259 260 261
293 292 291 290 289 288 287 286 285 285 284 283 283 282 281 280 280 279 278 278 277 277 276 275 274 274 273 273 272 272 271 271 271 270 270 270 269 269 269 268 268 267 267 266 266 265 265 264 264 263 263 263 262 262 261 261 260 260 259 258 258 259 259 260 260 260 259 259 259 259 259 259 259 258 258 258 258 258 257 257 257 257 257 258 258 259
293 292 291 290 289 288 287 286 286 285 284 283 283 282 281 280 280 279 279 278 277 277 276 276 275 274 273 273 272 272 271 271 271 270 270 270 269 269 268 268 267 267 266 266 265 265 264 264 263 263 262 261 261 261 260 260 259 259 258 258 257 257 258 258 259 259 258 258 258 258 258 258 258 258 258 257 257 257 257 257 256 256 256 257 257 257
293 292 291 290 289 288 287 286 286 285 284 283 283 282 281 280 280 279 279 278 277 277 276 276 275 274 274 273 272 272 271 271 271 270 270 270 269 269 268 268 267 267 266 265 265 265 264 263 263 262 261 261 260 260 259 259 259 258 258 257 257 257 257 257 257 257 257 257 257 257 257 257 257 257 257 257 257 256 256 256 256 256 256 256 256 256
293 292 290 289 288 288 287 287 286 285 284 283 282 282 281 280 280 279 279 278 277 277 276 276 275 275 274 273 273 272 272 271 271 270 270 270 269 269 268 268 267 266 266 265 265 264 263 263 262 261 261 260 260 259 259 258 258 258 257 257 256 256 256 256 256 256 256 256 256 255 255 256 256 256 256 256 256 256 256 256 255 255 255 255 255 255
292 291 290 289 288 288 287 287 286 285 284 283 282 282 281 281 280 279 279 278 278 277 277 276 276 275 275 274 273 272 272 271 271 270 270 269 269 268 268 267 267 266 266 265 264 264 263 262 262 261 260 260 259 259 258 258 257 257 257 256 256 255 255 255 255 255 255 254 254 254 254 254 254 254 254 254 255 255 255 255 255 254 254 254 254 254
292 291 290 289 289 288 288 287 286 285 284 283 282 282 281 281 280 280 279 278 278 277 277 276 276 275 275 274 273 273 272 271 271 270 270 269 269 268 268 267 267 266 266 265 265 264 263 262 262 261 260 259 259 258 258 257 257 256 256 256 255 255 254 254 254 253 253 253 253 253 253 253 253 253 253 253 253 254 254 255 254 254 253 253 253 253
292 291 290 290 289 289 288 287 285 284 284 283 283 282 282 281 281 280 279 279 278 278 277 276 276 275 275 274 274 273 272 271 271 270 270 269 269 268 268 267 267 266 266 265 265 264 263 262 262 261 260 259 259 258 258 257 256 256 255 255 255 254 254 253 253 253 253 253 252 252 252 252 252 252 252 252 252 253 254 254 253 253 252 252 252 252
292 291 291 290 290 289 288 286 285 284 284 283 283 282 282 281 281 280 280 279 279 278 277 277 276 275 275 275 274 273 272 272 271 270 270 269 269 269 268 267 267 266 266 265 265 264 263 262 262 261 260 259 259 258 257 257 256 256 255 254 254 254 253 253 252 252 252 252 252 252 251 251 251 251 251 251 252 252 253 253 253 252 252 251 251 251
292 292 291 290 289 288 287 286 285 284 283 283 283 283 282 282 281 280 280 279 279 278 278 277 276 276 275 275 274 273 273 272 271 271 270 270 269 268 268 267 267 266 266 265 264 264 263 263 262 261 260 259 259 258 257 257 256 255 255 254 254 253 253 252 252 252 251 251 251 251 251 251 251 250 250 251 251 251 251 252 252 251 251 251 250 250
292 292 291 290 289 288 287 286 285 284 283 283 283 283 283 282 282 281 280 280 279 279 278 278 277 276 275 275 274 274 273 273 272 271 270 269 269 268 268 267 267 266 266 265 265 264 263 263 262 261 260 259 258 258 257 256 256 255 254 254 253 253 252 252 252 252 251 251 250 250 250 250 250 250 250 250 250 250 250 250 250 250 250 250 249 249
292 291 291 290 289 288 287 285 285 284 284 283 283 283 283 283 282 282 281 280 279 279 278 278 278 277 276 275 274 274 273 273 272 271 270 269 268 268 267 267 266 266 265 265 265 264 263 262 261 260 260 259 258 257 257 256 255 255 254 253 253 252 252 252 251 251 251 250 250 250 249 249 249 249 249 249 249 249 249 249 249 249 249 249 248 248
291 291 290 290 289 287 286 285 285 284 284 284 284 283 283 283 283 282 282 281 280 279 279 278 278 277 276 275 274 274 273 272 272 271 270 269 268 267 266 266 266 265 265 265 264 263 263 262 261 260 259 258 258 257 256 256 255 255 254 254 253 252 252 251 251 251 250 250 249 249 249 248 248 248 248 248 247 247 247 247 248 248 248 248 247 247
291 290 290 289 288 287 286 285 285 284 284 284 284 284 283 283 283 283 282 281 281 280 279 278 278 277 276 275 274 273 273 272 271 270 269 269 268 267 266 265 265 265 264 264 263 262 262 261 260 259 259 258 258 257 257 256 256 255 254 254 253 252 251 251 250 250 249 249 249 249 248 248 247 247 247 247 246 246 246 246 246 246 246 246 246 246
291 290 289 288 287 286 286 285 285 284 284 284 284 284 284 284 284 283 283 282 281 280 279 279 278 277 276 275 274 273 272 271 270 270 269 269 268 267 266 265 264 264 263 263 262 261 261 260 260 259 259 258 258 257 257 257 256 255 255 254 253 252 251 250 250 249 249 248 248 248 248 247 247 246 246 246 245 245 245 245 245 245 245 246 245 245
290 289 288 287 287 286 286 285 285 284 284 284 284 284 284 284 284 284 283 282 281 280 279 279 277 276 275 275 274 273 272 271 270 270 269 269 268 267 266 265 264 264 263 262 262 261 261 260 260 259 259 259 258 258 257 257 256 256 255 254 253 252 251 250 249 249 248 248 248 247 247 246 246 245 245 245 244 244 244 244 244 244 244 245 245 245
290 288 288 287 286 286 285 285 284 284 284 284 284 284 285 284 284 284 283 282 281 280 279 278 277 276 274 274 273 272 272 271 271 270 270 269 268 267 267 266 265 264 263 262 262 261 261 260 260 260 259 259 259 258 258 257 256 256 255 254 253 252 251 250 249 248 247 247 247 246 246 246 245 245 244 244 243 243 243 243 243 243 243 244 244 244
289 288 287 287 286 286 285 285 284 284 284 285 285 285 284 284 284 283 282 282 280 279 278 277 276 275 274 273 272 272 272 271 271 270 269 269 268 267 267 266 265 264 264 263 263 262 261 261 261 260 260 259 259 258 258 258 257 256 255 254 253 252 251 250 249 248 247 246 246 246 245 245 244 244 243 243 243 242 242 242 242 242 242 243 243 243
289 288 287 287 286 285 285 284 284 284 284 284 284 284 284 284 283 283 282 281 280 279 277 276 275 274 273 272 272 272 272 271 271 270 269 268 268 267 267 267 266 266 265 264 263 263 262 262 261 261 260 260 259 259 258 258 257 256 255 254 253 252 251 249 248 247 247 246 245 245 244 244 244 243 243 242 242 242 241 241 241 241 241 242 242 242
289 288 287 286 286 285 285 285 284 284 284 284 284 284 284 283 283 282 281 280 279 278 277 275 274 273 273 272 272 271 271 271 271 270 269 268 267 267 268 268 267 267 266 265 264 264 263 262 262 261 261 261 260 260 259 258 257 256 255 254 253 251 250 249 248 247 246 245 244 244 243 243 243 242 242 241 241 241 240 240 240 240 241 241 241 241
289 288 287 286 286 285 285 284 284 284 284 284 283 283 283 282 281 281 280 279 278 277 276 275 274 273 272 271 271 271 271 271 271 270 269 268 268 268 268 268 268 267 267 266 265 264 264 263 263 262 262 261 261 260 259 258 257 255 254 253 252 251 250 248 247 246 245 244 244 243 242 242 241 241 241 241 240 240 240 240 240 240 240 240 241 241
289 288 287 286 286 285 285 284 284 284 284 283 283 283 282 281 280 279 278 277 276 276 275 274 273 272 272 271 271 271 271 271 271 270 269 268 268 268 269 269 268 268 267 266 266 265 265 264 264 263 262 261 260 259 258 257 256 254 253 252 251 249 248 247 246 245 244 243 243 242 241 241 241 240 240 240 240 239 239 239 239 239 239 240 240 240
290 288 287 286 286 285 284 284 284 283 283 283 283 282 281 280 279 278 277 276 275 275 274 273 273 272 271 271 271 271 271 271 271 270 270 269 269 269 269 269 269 268 268 267 266 266 265 264 264 263 261 260 259 258 257 256 254 253 252 251 250 248 247 246 245 244 243 242 242 241 240 240 240 239 239 239 239 239 239 238 238 238 238 239 239 239
290 289 288 287 286 285 284 284 284 283 283 282 282 281 280 279 278 277 276 275 275 274 273 273 272 271 271 271 270 270 271 271 271 271 271 270 270 269 269 269 269 268 268 267 266 265 265 264 263 261 260 259 258 257 256 254 253 252 251 250 248 247 246 245 244 243 242 241 241 240 240 239 239 238 238 238 238 238 238 238 238 238 238 238 238 237
291 290 288 287 286 285 285 284 283 283 282 281 281 279 278 277 276 275 275 274 274 274 273 272 272 271 271 270 270 270 271 272 272 272 271 271 270 269 269 269 269 269 268 267 266 265 264 263 262 260 259 258 257 256 255 254 252 251 250 249 247 246 245 244 243 242 241 241 240 239 239 238 238 238 237 237 237 237 237 237 237 237 237 237 237 236
291 290 289 288 287 286 285 284 283 282 281 280 279 278 276 276 275 274 274 274 273 273 272 272 271 271 271 270 270 271 272 272 272 272 272 271 270 269 269 269 269 268 267 266 264 263 262 261 260 259 258 257 256 255 254 253 251 250 249 248 247 245 244 243 242 241 241 240 239 239 238 237 237 237 237 236 236 236 236 236 236 236 236 236 235 235
292 291 290 289 288 287 285 284 283 281 280 278 277 276 275 274 274 273 273 273 273 273 272 271 271 271 271 271 271 272 272 273 273 273 272 271 270 269 269 269 268 267 265 264 263 262 261 260 259 258 258 256 255 254 253 252 250 249 248 247 246 244 243 242 241 241 240 239 238 238 237 237 236 236 236 236 235 235 235 235 235 235 235 234 234 233
293 292 291 289 288 286 285 283 281 280 278 276 275 274 273 273 273 273 273 273 272 272 271 271 271 271 271 271 272 272 273 273 274 274 272 271 269 269 269 268 266 265 264 262 261 260 259 258 258 257 257 256 254 253 252 251 250 248 247 246 245 243 243 241 241 240 239 238 237 237 236 236 236 235 235 235 234 234 234 234 234 233 233 233 232 232
294 292 291 290 288 286 284 282 280 278 276 275 274 273 273 272 272 272 272 272 272 271 271 271 270 270 271 271 272 273 274 274 274 273 271 269 268 267 267 266 264 263 262 261 260 259 258 258 257 256 256 255 253 252 251 250 248 247 246 245 243 242 241 240 240 239 238 237 237 236 236 235 235 234 234 234 233 233 233 233 232 232 232 231 231 231
294 293 291 289 287 285 283 281 279 277 275 274 273 273 272 272 272 272 272 272 271 271 271 270 270 270 271 271 272 273 274 275 275 272 270 268 266 265 264 264 263 262 260 260 259 259 258 257 257 256 255 254 253 251 250 248 247 245 244 243 242 241 240 239 239 238 237 237 236 236 235 235 234 234 233 232 232 232 231 231 231 230 230 230 229 229
294 292 290 288 286 284 281 279 277 276 275 274 273 272 272 272 271 271 271 271 271 271 270 270 270 270 271 271 273 274 275 275 274 271 268 265 264 263 262 262 261 260 260 259 258 258 258 257 256 255 254 253 252 250 248 247 245 244 243 241 240 240 239 238 238 237 237 236 236 235 234 234 233 232 232 231 231 230 230 230 229 229 228 228 228 228
294 292 289 287 284 282 280 279 277 276 275 274 273 272 272 271 271 271 271 270 270 270 270 270 270 271 272 272 273 274 275 274 272 268 266 263 262 261 261 260 260 260 259 259 258 257 257 256 256 255 253 252 250 249 247 245 244 242 241 240 239 239 238 237 237 236 236 235 235 234 233 233 232 231 231 230 230 229 229 228 228 227 227 227 226 226
294 291 289 286 284 282 280 278 277 276 275 274 273 272 271 271 270 270 270 270 270 270 270 270 271 271 272 273 274 274 274 272 269 266 263 261 261 260 260 260 259 259 259 258 257 257 256 256 255 254 252 251 249 247 245 243 242 241 240 239 238 237 237 236 236 235 234 234 233 233 232 231 230 230 229 228 228 228 227 227 226 226 226 226 225 225
293 291 288 286 283 281 280 278 277 276 275 274 272 272 271 270 270 269 269 269 270 270 271 271 271 272 272 273 273 273 272 269 267 264 262 260 260 259 260 259 259 259 258 258 257 256 256 255 254 253 251 249 247 246 244 242 241 240 239 238 237 236 236 235 234 234 233 233 232 231 230 229 229 228 227 227 226 226 226 225 225 224 224 224 224 224
293 291 288 286 284 282 280 278 277 275 274 273 272 271 270 269 269 269 269 269 270 270 271 271 271 272 272 272 272 271 269 267 264 262 261 260 259 260 260 260 259 259 258 257 256 255 255 254 253 251 249 248 246 244 242 241 240 239 238 237 236 235 234 233 233 232 231 231 230 229 228 228 227 226 226 225 224 224 223 223 222 222 222 223 223 224
293 291 289 287 285 282 280 278 276 275 273 272 271 270 269 269 269 269 270 270 270 271 271 271 271 271 271 270 270 269 267 265 263 261 260 260 260 260 260 259 259 258 256 256 255 254 253 252 251 250 248 246 244 242 241 240 239 238 237 236 234 233 232 232 231 230 229 229 228 227 227 226 226 225 224 223 222 222 221 220 220 220 221 222 222 223
294 292 290 287 285 282 280 278 275 274 272 272 271 271 270 270 270 270 270 270 270 270 270 270 270 270 270 269 268 267 265 264 262 261 260 260 260 260 259 258 257 256 255 254 253 252 251 251 249 248 246 244 243 241 240 239 238 236 235 234 233 231 230 229 228 228 227 226 226 226 225 225 224 224 223 222 221 220 218 218 217 218 219 221 222 223
294 292 290 287 285 282 279 277 275 274 273 272 271 271 271 271 271 271 270 270 270 269 269 269 269 269 269 268 267 266 264 263 262 261 261 261 260 259 258 257 255 254 253 252 251 251 250 249 248 246 244 243 241 240 239 238 237 235 234 232 230 229 228 227 226 225 225 224 224 224 223 223 223 222 222 221 220 218 217 216 216 216 217 219 221 222
294 292 289 287 284 282 279 277 276 274 274 273 272 272 271 271 270 270 269 269 269 269 269 269 268 268 268 267 266 265 264 263 262 261 261 260 259 258 257 255 254 253 251 251 250 249 248 247 246 244 243 241 240 239 238 237 235 234 232 230 229 227 226 225 224 224 223 222 222 222 222 222 221 221 220 220 219 218 217 216 215 216 217 218 219 220
295 292 290 287 285 283 280 278 277 275 274 273 273 272 271 270 270 269 269 269 268 268 268 268 267 267 267 266 265 264 263 262 262 261 260 259 258 256 255 253 252 251 250 249 248 248 246 245 244 242 241 240 239 238 236 235 234 232 231 229 228 227 226 224 223 222 222 222 221 221 220 220 220 219 219 218 218 217 217 216 216 216 217 218 219 219
295 292 290 288 286 284 281 279 278 276 275 273 272 271 271 270 269 269 269 268 268 268 267 267 266 266 265 264 263 263 262 261 260 260 259 257 256 254 253 252 251 250 249 248 246 245 244 243 241 240 239 238 236 235 234 233 232 231 230 229 227 226 225 224 223 222 222 221 221 220 219 219 218 218 218 217 217 217 217 216 216 216 217 218 219 220
295 293 291 289 286 284 281 279 277 276 274 273 272 271 270 270 269 269 269 268 268 267 267 266 265 264 264 263 262 262 261 260 259 258 257 256 254 253 251 250 249 248 246 245 244 243 241 240 239 237 236 235 234 233 232 231 230 228 227 226 225 224 223 223 223 222 222 221 220 220 219 218 218 217 217 217 217 216 216 216 217 217 218 219 219 220
296 293 291 288 286 283 281 278 277 275 274 273 272 271 271 270 269 269 268 268 267 266 265 265 264 264 263 262 261 260 259 259 257 256 254 253 252 250 249 248 247 245 244 242 241 239 238 237 235 234 233 232 231 230 229 228 227 226 225 224 223 223 222 222 222 222 221 220 219 219 218 217 217 217 217 217 217 217 217 217 218 218 219 220 221 222
295 293 291 288 285 283 280 278 276 275 274 273 272 271 271 270 269 269 268 267 266 266 265 264 263 263 262 261 260 258 257 256 254 253 251 250 249 247 246 245 244 242 241 239 238 236 235 233 232 231 230 229 228 227 226 225 224 223 222 221 221 220 220 221 220 220 220 219 218 217 216 216 216 216 216 217 217 217 218 218 219 219 220 221 222 223
295 293 290 287 285 283 280 278 277 275 274 273 272 271 270 270 269 268 267 266 265 265 264 263 262 261 260 259 257 256 254 252 250 249 248 246 245 244 243 241 240 239 238 237 236 234 233 231 230 229 228 227 226 225 224 222 221 221 220 219 218 218 218 218 218 218 217 217 216 216 215 215 215 215 216 217 217 218 219 219 220 220 221 222 223 224
295 292 290 287 285 283 281 279 277 276 274 273 272 271 270 269 268 267 266 265 264 263 262 261 260 259 257 255 253 251 249 247 245 244 243 242 241 240 240 239 238 237 236 235 234 233 232 231 229 228 227 226 225 224 223 222 221 220 219 218 217 217 216 216 216 216 216 215 215 214 214 214 214 215 216 217 218 218 219 220 220 221 222 223 224 224
294 291 289 287 284 282 280 278 277 275 273 272 271 270 269 267 266 265 264 263 262 261 259 258 257 255 252 251 248 246 244 242 241 239 238 238 238 237 237 236 236 235 234 234 233 232 232 231 230 229 228 226 225 224 223 222 221 219 218 217 217 216 216 216 215 215 214 214 214 214 213 214 214 215 216 217 218 218 219 220 220 221 222 223 224 225
292 290 288 286 284 281 279 277 276 274 272 271 270 268 267 265 265 263 262 261 259 258 256 254 252 249 247 245 243 241 239 238 237 236 234 234 234 234 234 234 234 233 233 232 232 231 230 229 229 227 227 225 224 223 222 221 220 219 218 217 216 215 215 215 214 214 213 213 213 212 213 213 214 215 215 216 217 218 219 219 220 221 222 223 224 225
291 289 287 284 283 281 279 277 275 273 271 270 268 266 265 264 263 261 260 258 256 254 251 249 247 246 244 243 241 239 238 236 235 234 232 232 232 232 231 231 231 230 230 229 229 228 227 227 226 225 224 224 222 221 221 220 219 218 217 217 216 215 214 214 213 213 212 212 211 211 212 212 213 214 215 215 216 217 218 219 220 221 222 223 223 224
289 287 286 284 282 280 278 277 274 272 270 268 267 265 264 263 261 260 258 255 253 250 248 247 245 244 243 242 241 239 237 235 234 232 231 230 229 228 227 227 226 225 225 225 225 224 223 222 222 222 221 221 220 219 219 219 218 218 217 216 216 215 214 213 213 212 212 211 211 211 211 211 212 213 214 214 215 217 217 218 219 220 221 222 223 224
Height
10260 10257 10256 10254 10251 10247 10244 10241 10239 10236 10233 10232 10231 10230 10227 10225 10224 10222 10221 10220 10219 10219 10218 10218 10217 10217 10216 10216 10215 10214 10213 10213 10212 10212 10213 10214 10214 10216 10217 10218 10220 10221 10222 10223 10224 10226 10227 10229 10231 10232 10234 10236 10237 10239 10241 10242 10245 10247 10249 10251 10252 10252 10252 10253 10257 10261 10265 10267 10269 10272 10274 10277 10280 10282 10285 10287 10291 10293 10296 10299 10302 10307 10311 10312 10312 10312
10247 10245 10243 10241 10238 10235 10232 10229 10227 10224 10221 10220 10219 10218 10216 10214 10212 10212 10211 10209 10208 10207 10207 10207 10207 10206 10206 10205 10204 10204 10202 10202 10202 10202 10203 10204 10204 10206 10207 10209 10210 10212 10212 10213 10214 10216 10218 10219 10221 10223 10225 10226 10228 10229 10231 10232 10234 10236 10239 10241 10242 10243 10243 10245 10248 10252 10255 10257 10260 10262 10264 10267 10271 10273 10276 10279 10281 10284 10286 10289 10292 10297 10302 10307 10312 10312
10236 10233 10231 10229 10226 10223 10220 10218 10216 10214 10211 10209 10208 10207 10206 10204 10202 10201 10201 10199 10197 10197 10196 10196 10196 10196 10196 10195 10194 10194 10192 10192 10192 10193 10193 10194 10195 10196 10197 10199 10201 10202 10202 10204 10205 10206 10208 10210 10212 10214 10216 10217 10219 10220 10221 10222 10224 10226 10229 10231 10233 10234 10235 10237 10239 10242 10246 10249 10251 10253 10256 10258 10261 10264 10267 10269 10272 10275 10277 10280 10283 10287 10292 10297 10302 10304
10226 10222 10219 10217 10215 10212 10209 10207 10205 10202 10201 10199 10197 10196 10195 10194 10192 10192 10191 10189 10188 10186 10186 10186 10185 10185 10186 10186 10185 10184 10184 10183 10183 10184 10184 10185 10186 10187 10188 10190 10191 10192 10193 10194 10196 10197 10199 10201 10202 10205 10207 10208 10209 10210 10211 10212 10214 10216 10219 10221 10224 10226 10227 10229 10231 10234 10237 10240 10242 10244 10247 10249 10252 10255 10257 10261 10264 10266 10269 10272 10275 10279 10282 10286 10291 10295
10214 10211 10207 10206 10204 10201 10199 10197 10194 10192 10191 10189 10187 10186 10185 10184 10182 10182 10181 10180 10179 10177 10176 10176 10175 10175 10176 10176 10176 10176 10175 10174 10174 10175 10176 10176 10177 10178 10179 10180 10181 10182 10184 10184 10186 10188 10190 10192 10193 10195 10196 10197 10198 10199 10201 10202 10205 10207 10210 10212 10215 10217 10219 10221 10223 10226 10228 10231 10234 10236 10239 10241 10244 10246 10249 10252 10254 10257 10259 10263 10267 10271 10275 10278 10281 10286
10203 10201 10197 10194 10193 10192 10190 10188 10185 10182 10180 10178 10177 10176 10176 10174 10173 10172 10172 10171 10169 10168 10167 10167 10166 10166 10166 10166 10166 10166 10166 10166 10166 10166 10167 10167 10168 10169 10170 10171 10172 10173 10174 10175 10177 10179 10181 10182 10184 10185 10187 10188 10189 10191 10192 10194 10196 10198 10201 10203 10206 10208 10211 10213 10215 10217 10220 10222 10226 10228 10231 10233 10236 10238 10241 10244 10246 10248 10251 10254 10259 10264 10267 10270 10273 10277
10192 10190 10187 10184 10183 10182 10181 10179 10176 10173 10171 10168 10167 10167 10166 10166 10164 10164 10163 10162 10161 10159 10159 10158 10157 10157 10157 10157 10157 10157 10158 10158 10158 10158 10159 10159 10160 10161 10161 10162 10163 10164 10165 10167 10168 10170 10172 10173 10175 10176 10178 10179 10181 10182 10184 10186 10187 10189 10191 10194 10197 10199 10202 10204 10207 10209 10212 10214 10217 10220 10222 10226 10228 10231 10233 10236 10238 10240 10242 10246 10251 10256 10259 10262 10265 10269
10181 10179 10178 10176 10174 10173 10172 10171 10167 10164 10161 10159 10158 10158 10158 10157 10156 10155 10154 10153 10152 10151 10151 10150 10149 10149 10148 10148 10148 10149 10149 10150 10150 10151 10151 10151 10152 10152 10152 10154 10154 10156 10157 10158 10160 10161 10163 10164 10166 10167 10169 10171 10172 10174 10175 10177 10179 10181 10183 10186 10188 10191 10194 10196 10199 10201 10204 10206 10209 10212 10215 10217 10220 10223 10226 10228 10231 10232 10235 10239 10244 10247 10251 10254 10257 10262
10170 10169 10168 10167 10166 10164 10162 10161 10159 10156 10151 10149 10149 10149 10149 10149 10148 10147 10146 10144 10144 10143 10142 10141 10141 10141 10141 10140 10139 10140 10141 10142 10142 10142 10143 10143 10144 10144 10145 10146 10146 10147 10149 10150 10151 10153 10154 10156 10157 10159 10161 10162 10163 10165 10167 10169 10171 10173 10175 10177 10180 10182 10185 10188 10191 10194 10196 10199 10202 10204 10207 10210 10212 10216 10218 10221 10223 10225 10227 10231 10236 10240 10243 10246 10250 10254
10161 10159 10159 10159 10158 10157 10154 10151 10150 10147 10144 10141 10140 10141 10141 10141 10140 10139 10138 10137 10136 10134 10134 10133 10133 10133 10133 10132 10131 10131 10132 10134 10135 10136 10136 10136 10136 10136 10137 10137 10139 10139 10141 10142 10143 10144 10146 10148 10149 10151 10152 10154 10155 10157 10159 10161 10163 10165 10167 10169 10172 10175 10177 10181 10183 10186 10189 10192 10194 10197 10200 10202 10205 10208 10211 10213 10216 10218 10221 10224 10228 10232 10235 10239 10242 10246
10152 10151 10150 10149 10149 10147 10145 10142 10141 10139 10136 10133 10132 10132 10132 10132 10131 10131 10131 10131 10129 10127 10125 10125 10126 10126 10126 10124 10124 10124 10124 10126 10127 10128 10128 10128 10129 10129 10129 10130 10131 10132 10133 10134 10136 10137 10138 10140 10141 10143 10144 10146 10147 10149 10151 10152 10155 10157 10159 10162 10164 10167 10170 10173 10176 10179 10182 10184 10187 10190 10192 10195 10197 10201 10204 10206 10209 10212 10214 10217 10221 10224 10227 10231 10235 10239
10143 10142 10141 10141 10139 10138 10136 10134 10131 10129 10127 10126 10124 10124 10124 10124 10124 10123 10124 10124 10122 10120 10117 10117 10117 10118 10118 10117 10116 10116 10116 10117 10119 10121 10121 10121 10121 10122 10122 10122 10124 10124 10126 10127 10128 10129 10131 10133 10134 10136 10137 10138 10139 10141 10142 10144 10147 10149 10152 10154 10157 10160 10163 10166 10169 10172 10174 10177 10180 10182 10185 10188 10191 10194 10196 10199 10202 10205 10207 10211 10214 10217 10220 10223 10227 10231
10135 10133 10132 10132 10131 10129 10127 10124 10122 10121 10120 10119 10117 10117 10117 10116 10116 10116 10116 10116 10116 10114 10111 10110 10110 10110 10110 10110 10109 10109 10109 10110 10112 10113 10114 10114 10114 10114 10115 10116 10116 10117 10119 10120 10121 10122 10124 10125 10126 10127 10129 10130 10131 10133 10135 10137 10139 10142 10144 10147 10150 10153 10156 10159 10162 10164 10167 10170 10172 10175 10177 10181 10184 10186 10189 10192 10196 10198 10201 10204 10206 10209 10212 10216 10219 10223
10127 10126 10124 10123 10122 10121 10118 10116 10115 10114 10112 10111 10110 10109 10109 10109 10109 10109 10108 10109 10108 10107 10106 10104 10104 10103 10102 10102 10102 10102 10102 10103 10104 10105 10106 10106 10106 10107 10107 10109 10110 10111 10112 10113 10114 10115 10116 10117 10118 10119 10121 10122 10123 10125 10127 10129 10132 10135 10137 10141 10143 10146 10149 10152 10155 10157 10159 10162 10165 10167 10170 10173 10176 10179 10182 10186 10189 10191 10194 10197 10199 10202 10205 10208 10212 10216
10119 10117 10116 10114 10113 10112 10110 10108 10107 10106 10105 10104 10103 10102 10102 10102 10102 10102 10102 10102 10101 10101 10099 10098 10097 10097 10096 10094 10094 10094 10096 10096 10097 10097 10098 10099 10099 10100 10101 10102 10103 10104 10106 10106 10107 10107 10108 10109 10110 10111 10113 10114 10116 10118 10120 10122 10125 10128 10131 10134 10137 10139 10142 10145 10147 10150 10152 10155 10157 10160 10163 10166 10169 10172 10176 10179 10182 10184 10187 10190 10192 10195 10197 10201 10204 10207
10112 10110 10107 10106 10105 10103 10102 10101 10099 10099 10098 10097 10096 10096 10096 10096 10096 10096 10096 10095 10095 10094 10093 10092 10092 10091 10089 10087 10087 10087 10088 10089 10091 10091 10092 10092 10092 10093 10094 10094 10096 10098 10099 10099 10099 10100 10101 10102 10103 10104 10106 10108 10109 10112 10114 10116 10119 10122 10124 10127 10130 10133 10136 10138 10141 10144 10146 10148 10151 10153 10156 10159 10162 10166 10169 10172 10174 10177 10181 10183 10186 10188 10191 10194 10197 10201
10104 10102 10100 10098 10097 10096 10094 10093 10092 10091 10091 10091 10090 10090 10089 10089 10090 10089 10089 10089 10089 10089 10087 10087 10086 10085 10083 10081 10080 10080 10081 10082 10084 10086 10086 10086 10085 10086 10086 10087 10090 10091 10092 10092 10092 10094 10094 10096 10097 10098 10100 10101 10104 10106 10108 10111 10113 10116 10119 10121 10124 10126 10129 10132 10134 10137 10139 10141 10144 10146 10149 10152 10156 10159 10162 10165 10167 10171 10174 10176 10179 10181 10184 10187 10189 10193
10097 10094 10092 10091 10089 10089 10087 10086 10085 10084 10084 10084 10084 10084 10084 10083 10084 10084 10084 10084 10084 10082 10082 10081 10081 10079 10077 10076 10073 10072 10074 10076 10078 10079 10080 10079 10079 10079 10079 10081 10083 10085 10086 10086 10086 10087 10088 10089 10091 10092 10094 10096 10097 10100 10102 10105 10107 10110 10112 10115 10117 10120 10122 10125 10127 10131 10132 10135 10137 10140 10143 10146 10149 10152 10155 10158 10161 10164 10167 10169 10172 10175 10177 10180 10182 10186
10089 10087 10084 10082 10082 10082 10081 10079 10078 10077 10077 10078 10077 10077 10077 10077 10078 10079 10078 10078 10077 10076 10076 10074 10073 10072 10071 10069 10067 10067 10067 10069 10072 10074 10074 10074 10072 10072 10072 10074 10076 10079 10079 10080 10080 10081 10082 10084 10085 10086 10088 10090 10092 10094 10097 10099 10101 10104 10106 10109 10111 10114 10116 10119 10121 10124 10126 10129 10131 10134 10136 10139 10142 10146 10148 10151 10154 10157 10160 10163 10166 10168 10171 10173 10176 10179
10081 10079 10077 10075 10075 10074 10074 10072 10071 10071 10071 10072 10072 10072 10072 10073 10073 10072 10072 10071 10069 10069 10069 10067 10067 10066 10065 10064 10062 10061 10061 10064 10066 10069 10069 10068 10066 10066 10066 10067 10070 10072 10074 10074 10074 10076 10077 10078 10079 10081 10082 10084 10086 10089 10091 10094 10096 10098 10101 10103 10105 10107 10110 10112 10115 10117 10120 10122 10125 10127 10130 10133 10136 10139 10142 10144 10147 10151 10153 10156 10159 10161 10164 10166 10169 10173
10074 10072 10070 10069 10068 10067 10067 10066 10065 10065 10066 10066 10067 10067 10067 10067 10066 10065 10064 10063 10063 10062 10062 10062 10061 10060 10059 10058 10057 10056 10056 10058 10061 10062 10063 10062 10061 10060 10060 10062 10065 10067 10068 10068 10069 10070 10071 10073 10074 10076 10077 10079 10082 10084 10086 10089 10091 10092 10095 10097 10099 10102 10104 10106 10109 10111 10114 10116 10119 10121 10124 10127 10129 10132 10135 10138 10141 10144 10147 10149 10152 10155 10157 10160 10163 10167
10067 10065 10063 10062 10061 10061 10061 10060 10059 10059 10060 10062 10062 10062 10061 10059 10059 10058 10057 10057 10057 10057 10056 10056 10056 10055 10054 10052 10051 10051 10051 10052 10055 10057 10058 10057 10056 10055 10056 10057 10060 10062 10062 10063 10064 10065 10067 10069 10070 10071 10073 10074 10077 10079 10081 10083 10085 10087 10089 10091 10094 10096 10098 10101 10102 10105 10107 10110 10112 10115 10117 10121 10123 10126 10129 10132 10134 10137 10141 10143 10146 10149 10151 10154 10157 10161
10059 10058 10057 10056 10055 10054 10054 10054 10053 10054 10055 10056 10054 10054 10054 10053 10053 10052 10052 10051 10051 10051 10051 10051 10050 10049 10049 10047 10047 10046 10046 10047 10049 10052 10054 10053 10052 10051 10052 10054 10056 10057 10057 10059 10060 10062 10062 10063 10064 10066 10067 10069 10072 10074 10076 10078 10080 10082 10084 10086 10088 10091 10092 10094 10097 10099 10101 10104 10106 10109 10112 10114 10117 10120 10122 10126 10129 10131 10134 10137 10140 10142 10145 10148 10151 10154
10051 10051 10051 10049 10049 10048 10048 10049 10049 10049 10049 10048 10047 10047 10047 10047 10047 10046 10046 10046 10045 10045 10045 10045 10044 10044 10043 10042 10042 10041 10042 10043 10045 10048 10050 10050 10049 10047 10047 10049 10050 10051 10053 10054 10054 10055 10056 10057 10059 10061 10062 10064 10066 10068 10071 10072 10075 10077 10079 10081 10083 10085 10087 10089 10091 10093 10096 10098 10101 10103 10106 10109 10111 10114 10117 10120 10122 10126 10129 10131 10134 10137 10139 10142 10146 10149
10044 10044 10044 10043 10042 10042 10042 10043 10044 10044 10042 10042 10042 10041 10041 10041 10041 10041 10039 10039 10039 10039 10040 10040 10039 10039 10038 10038 10037 10037 10037 10039 10042 10044 10045 10045 10044 10042 10042 10044 10046 10048 10049 10049 10050 10051 10052 10053 10054 10056 10057 10059 10061 10063 10066 10067 10070 10072 10074 10076 10077 10079 10081 10084 10086 10088 10090 10092 10095 10097 10100 10102 10106 10108 10111 10114 10117 10121 10123 10126 10129 10131 10134 10137 10140 10143
10037 10037 10037 10037 10036 10037 10037 10037 10037 10037 10036 10036 10036 10035 10035 10035 10034 10034 10034 10034 10034 10034 10035 10035 10034 10033 10033 10033 10032 10032 10033 10035 10037 10039 10040 10041 10040 10039 10039 10040 10042 10044 10045 10045 10046 10046 10047 10048 10049 10051 10052 10054 10056 10059 10061 10063 10065 10067 10069 10071 10072 10074 10076 10078 10080 10082 10084 10087 10089 10092 10094 10097 10100 10103 10106 10109 10112 10115 10118 10121 10123 10126 10129 10131 10134 10137
10031 10031 10031 10031 10031 10031 10031 10031 10031 10031 10031 10031 10030 10029 10029 10029 10029 10028 10028 10029 10029 10030 10030 10029 10029 10028 10028 10028 10028 10029 10030 10031 10034 10036 10037 10037 10036 10035 10035 10036 10038 10040 10041 10041 10041 10042 10042 10043 10044 10046 10047 10049 10052 10054 10056 10058 10060 10062 10064 10066 10067 10069 10071 10073 10075 10077 10079 10082 10084 10087 10089 10092 10095 10097 10101 10104 10107 10110 10112 10115 10118 10121 10124 10126 10129 10132
10026 10025 10025 10025 10025 10025 10025 10025 10025 10025 10025 10025 10024 10024 10024 10024 10023 10023 10022 10023 10024 10025 10025 10024 10024 10024 10024 10024 10024 10024 10026 10028 10030 10032 10033 10033 10032 10031 10031 10032 10034 10036 10036 10036 10037 10037 10038 10039 10039 10041 10043 10045 10047 10049 10051 10053 10055 10057 10059 10061 10062 10064 10066 10067 10070 10072 10074 10076 10079 10081 10084 10087 10090 10092 10096 10099 10102 10104 10107 10110 10113 10116 10119 10121 10124 10127
10020 10020 10019 10019 10019 10019 10019 10019 10019 10019 10019 10019 10019 10019 10019 10019 10018 10018 10017 10019 10019 10020 10020 10020 10020 10019 10019 10019 10020 10021 10022 10025 10027 10029 10030 10029 10028 10027 10027 10029 10030 10031 10032 10032 10032 10032 10033 10034 10036 10037 10039 10041 10043 10045 10047 10049 10051 10052 10054 10056 10057 10059 10061 10062 10064 10067 10069 10071 10074 10076 10079 10082 10085 10087 10091 10094 10097 10100 10102 10106 10109 10111 10114 10116 10119 10122
10016 10015 10014 10014 10014 10014 10014 10013 10013 10013 10014 10014 10014 10014 10014 10014 10013 10013 10013 10014 10015 10016 10016 10015 10015 10016 10016 10016 10016 10017 10019 10022 10025 10026 10026 10025 10024 10024 10024 10024 10025 10026 10027 10027 10028 10028 10029 10031 10032 10033 10035 10037 10039 10041 10043 10045 10046 10048 10049 10051 10052 10054 10056 10057 10060 10062 10064 10067 10069 10072 10074 10077 10080 10083 10086 10089 10092 10096 10098 10101 10103 10106 10109 10111 10114 10117
10011 10010 10009 10009 10009 10008 10008 10007 10007 10008 10008 10008 10009 10009 10009 10009 10009 10009 10009 10010 10011 10011 10011 10011 10011 10011 10012 10012 10013 10014 10016 10019 10022 10022 10022 10021 10020 10019 10019 10020 10021 10022 10023 10024 10024 10024 10025 10026 10028 10029 10031 10033 10035 10037 10039 10041 10042 10044 10045 10046 10047 10049 10051 10053 10055 10057 10060 10062 10064 10067 10070 10072 10076 10079 10082 10085 10088 10091 10093 10096 10098 10101 10103 10106 10109 10112
10006 10006 10005 10004 10004 10003 10002 10002 10002 10002 10003 10004 10004 10004 10004 10004 10004 10004 10005 10006 10006 10006 10006 10007 10007 10007 10009 10009 10010 10011 10013 10016 10018 10019 10017 10017 10016 10016 10016 10016 10017 10017 10019 10020 10021 10021 10021 10022 10024 10026 10027 10029 10031 10033 10035 10036 10037 10039 10041 10042 10043 10045 10047 10049 10051 10053 10056 10057 10060 10062 10066 10069 10072 10074 10077 10081 10084 10086 10089 10091 10094 10096 10099 10101 10104 10107
10001 10001 10000 9999 9999 9998 9998 9997 9997 9998 9999 9999 10000 10000 10001 10001 10001 10001 10001 10001 10002 10002 10002 10003 10004 10004 10005 10006 10007 10009 10011 10012 10014 10014 10013 10012 10012 10011 10011 10012 10012 10014 10015 10016 10016 10017 10018 10019 10021 10022 10024 10026 10027 10029 10031 10032 10034 10035 10036 10037 10039 10041 10043 10045 10047 10049 10051 10054 10056 10059 10062 10065 10068 10071 10074 10077 10079 10082 10084 10087 10089 10092 10094 10097 10100 10103
9996 9996 9996 9995 9994 9994 9994 9994 9994 9994 9995 9996 9996 9996 9996 9996 9997 9997 9997 9997 9997 9999 9999 10000 10000 10001 10002 10002 10004 10006 10007 10009 10009 10009 10009 10008 10007 10007 10007 10008 10009 10010 10011 10012 10012 10013 10014 10016 10017 10019 10021 10022 10024 10026 10027 10028 10029 10031 10032 10034 10036 10037 10039 10041 10043 10045 10047 10049 10052 10055 10058 10061 10064 10067 10070 10072 10075 10077 10080 10083 10085 10087 10090 10093 10096 10098
9992 9991 9991 9991 9991 9990 9990 9990 9990 9991 9991 9991 9992 9992 9992 9992 9992 9993 9993 9994 9994 9995 9996 9996 9997 9998 9999 10000 10001 10002 10003 10004 10005 10004 10004 10004 10003 10004 10004 10005 10006 10007 10008 10009 10009 10010 10011 10012 10014 10016 10017 10019 10020 10021 10023 10024 10026 10026 10028 10030 10032 10034 10036 10037 10039 10041 10044 10046 10048 10051 10054 10056 10059 10062 10066 10068 10071 10074 10076 10079 10081 10084 10086 10089 10091 10094
9988 9987 9987 9987 9987 9987 9987 9987 9987 9987 9987 9987 9987 9988 9988 9989 9989 9989 9990 9991 9991 9992 9992 9993 9994 9995 9996 9997 9998 9999 9999 10000 10000 10000 10000 9999 10000 10000 10001 10002 10003 10004 10005 10005 10006 10007 10007 10009 10011 10012 10014 10015 10016 10017 10019 10021 10021 10022 10024 10026 10028 10030 10032 10034 10036 10037 10039 10042 10044 10047 10049 10052 10055 10057 10061 10064 10067 10071 10072 10075 10077 10080 10082 10084 10087 10089
9984 9984 9984 9984 9984 9984 9984 9984 9984 9984 9984 9984 9984 9984 9985 9986 9986 9987 9987 9987 9988 9989 9989 9990 9991 9991 9992 9993 9994 9995 9996 9996 9996 9996 9996 9996 9997 9997 9998 9999 10000 10001 10001 10002 10002 10004 10005 10006 10007 10009 10010 10012 10013 10014 10016 10017 10017 10019 10021 10023 10025 10027 10028 10030 10032 10034 10036 10038 10041 10043 10046 10048 10051 10054 10057 10061 10064 10067 10069 10072 10074 10076 10077 10080 10082 10085
9981 9981 9981 9981 9981 9981 9981 9981 9980 9980 9981 9981 9981 9981 9982 9982 9983 9984 9984 9985 9985 9986 9986 9987 9987 9988 9989 9990 9991 9991 9992 9992 9992 9992 9992 9993 9994 9995 9996 9996 9997 9997 9998 9999 10000 10001 10002 10003 10004 10006 10007 10009 10009 10011 10012 10013 10014 10016 10017 10020 10022 10023 10025 10027 10029 10030 10032 10034 10037 10039 10042 10044 10047 10051 10054 10057 10060 10062 10065 10067 10069 10071 10074 10076 10079 10081
9978 9978 9977 9977 9977 9977 9977 9977 9977 9977 9977 9978 9978 9979 9979 9980 9981 9981 9982 9982 9982 9983 9984 9984 9985 9986 9986 9987 9987 9988 9988 9989 9989 9989 9989 9990 9991 9992 9992 9993 9994 9994 9995 9996 9997 9998 9999 10000 10001 10002 10004 10005 10006 10007 10008 10009 10011 10012 10014 10017 10018 10020 10021 10023 10025 10027 10029 10031 10034 10036 10039 10042 10045 10048 10051 10053 10056 10058 10061 10063 10065 10067 10070 10072 10075 10077
9976 9975 9975 9974 9974 9974 9974 9974 9974 9975 9975 9976 9976 9976 9977 9977 9978 9979 9979 9979 9980 9980 9981 9981 9982 9982 9983 9984 9984 9984 9985 9985 9986 9986 9987 9987 9988 9989 9989 9990 9991 9991 9992 9993 9994 9995 9996 9997 9999 10000 10001 10002 10003 10004 10006 10007 10008 10010 10012 10013 10015 10017 10018 10020 10022 10024 10026 10028 10031 10033 10036 10039 10041 10044 10047 10049 10052 10054 10056 10059 10061 10064 10066 10068 10071 10073
9972 9972 9972 9972 9972 9972 9972 9972 9972 9972 9973 9973 9974 9974 9974 9975 9976 9976 9976 9977 9977 9978 9978 9979 9979 9980 9981 9981 9981 9982 9982 9982 9982 9983 9984 9984 9985 9986 9986 9987 9988 9989 9989 9991 9991 9992 9994 9995 9996 9997 9998 9999 10000 10001 10002 10004 10006 10007 10009 10011 10012 10014 10016 10017 10019 10021 10024 10026 10028 10031 10033 10036 10038 10041 10043 10046 10048 10050 10052 10055 10058 10061 10062 10065 10067 10069
9971 9970 9970 9969 9969 9969 9969 9970 9970 9970 9971 9971 9971 9972 9972 9972 9973 9973 9974 9974 9975 9976 9976 9976 9977 9977 9977 9978 9978 9979 9979 9979 9980 9981 9981 9982 9982 9983 9984 9984 9985 9986 9987 9988 9989 9990 9991 9992 9993 9994 9996 9997 9997 9999 10000 10002 10003 10004 10006 10008 10010 10012 10013 10015 10017 10019 10021 10023 10026 10028 10030 10032 10034 10037 10039 10042 10044 10046 10049 10052 10054 10057 10059 10061 10063 10066
9968 9968 9967 9967 9967 9967 9967 9967 9967 9968 9968 9969 9969 9969 9970 9971 9971 9971 9972 9972 9972 9973 9974 9974 9974 9975 9975 9976 9976 9976 9977 9977 9977 9978 9979 9979 9980 9981 9981 9982 9982 9984 9984 9986 9986 9987 9989 9990 9991 9992 9993 9994 9996 9997 9998 9999 10001 10002 10004 10006 10007 10009 10011 10012 10014 10016 10018 10021 10023 10025 10027 10029 10032 10034 10036 10039 10041 10043 10046 10048 10051 10053 10055 10057 10059 10061
9966 9966 9966 9966 9966 9966 9966 9966 9966 9966 9966 9967 9967 9967 9967 9968 9969 9969 9969 9970 9971 9971 9971 9971 9972 9972 9972 9973 9974 9974 9974 9975 9976 9976 9976 9977 9977 9978 9979 9979 9981 9981 9982 9983 9984 9985 9986 9987 9988 9989 9991 9992 9993 9994 9996 9997 9999 10001 10002 10004 10006 10007 10008 10010 10012 10014 10017 10019 10021 10023 10025 10027 10029 10031 10034 10036 10038 10040 10042 10044 10047 10049 10051 10053 10056 10057
9964 9964 9964 9964 9964 9963 9963 9964 9964 9964 9964 9965 9965 9966 9966 9966 9967 9967 9967 9967 9968 9969 9969 9969 9969 9970 9971 9971 9971 9972 9972 9972 9973 9974 9974 9975 9975 9976 9977 9977 9978 9979 9980 9981 9982 9983 9984 9985 9986 9987 9989 9990 9991 9992 9994 9996 9997 9999 10000 10002 10003 10005 10007 10009 10011 10012 10014 10016 10019 10021 10022 10024 10026 10028 10031 10032 10034 10037 10039 10041 10043 10045 10047 10049 10051 10054
9962 9962 9962 9962 9962 9962 9962 9962 9962 9962 9962 9963 9963 9964 9964 9964 9965 9965 9966 9966 9966 9966 9967 9967 9967 9968 9969 9969 9969 9970 9970 9971 9971 9971 9972 9972 9973 9974 9974 9975 9976 9977 9978 9979 9980 9981 9982 9983 9984 9986 9987 9988 9989 9991 9992 9994 9995 9996 9998 10000 10002 10004 10006 10007 10009 10011 10012 10014 10016 10018 10020 10022 10023 10026 10027 10029 10031 10034 10036 10038 10040 10042 10044 10046 10048 10050
9961 9961 9961 9961 9961 9961 9961 9961 9961 9961 9961 9961 9962 9962 9962 9962 9963 9963 9964 9964 9964 9965 9965 9966 9966 9966 9967 9967 9967 9967 9968 9969 9969 9969 9970 9971 9971 9972 9972 9973 9974 9975 9976 9977 9978 9979 9980 9981 9982 9984 9985 9986 9987 9989 9991 9992 9993 9995 9996 9998 10000 10001 10003 10004 10006 10009 10011 10012 10014 10016 10017 10019 10021 10022 10024 10027 10029 10031 10033 10035 10037 10039 10041 10043 10045 10047
9960 9959 9959 9959 9959 9959 9959 9959 9959 9959 9959 9960 9960 9961 9961 9961 9961 9962 9962 9962 9962 9963 9963 9964 9964 9964 9964 9965 9965 9966 9966 9966 9967 9967 9968 9969 9969 9970 9971 9972 9972 9974 9974 9976 9976 9977 9979 9980 9981 9982 9983 9984 9986 9987 9989 9990 9992 9993 9995 9996 9998 9999 10001 10002 10004 10006 10008 10010 10012 10014 10015 10017 10019 10021 10022 10024 10027 10029 10031 10032 10034 10036 10038 10040 10042 10044
9959 9958 9958 9958 9958 9958 9958 9958 9958 9958 9958 9958 9959 9959 9959 9959 9960 9960 9961 9961 9961 9962 9962 9962 9962 9962 9962 9962 9963 9964 9964 9964 9965 9966 9966 9967 9967 9969 9969 9970 9971 9972 9973 9974 9975 9976 9977 9978 9979 9981 9982 9983 9984 9986 9987 9988 9990 9991 9993 9994 9996 9998 9999 10001 10002 10004 10006 10008 10009 10011 10013 10015 10017 10019 10021 10022 10024 10026 10028 10030 10032 10034 10036 10037 10039 10041
9957 9957 9957 9957 9957 9957 9957 9957 9957 9957 9957 9957 9957 9957 9957 9958 9958 9959 9959 9959 9960 9960 9960 9960 9961 9961 9961 9961 9961 9962 9962 9962 9963 9964 9965 9966 9966 9967 9967 9969 9969 9971 9971 9972 9973 9974 9976 9976 9977 9979 9980 9981 9982 9984 9986 9987 9988 9990 9991 9993 9994 9996 9997 9999 10001 10002 10004 10006 10007 10009 10011 10013 10015 10017 10019 10020 10022 10024 10026 10027 10029 10031 10032 10034 10036 10037
9956 9956 9956 9956 9956 9956 9956 9956 9956 9956 9956 9956 9956 9956 9956 9957 9957 9957 9958 9958 9958 9959 9959 9959 9959 9959 9959 9959 9960 9961 9961 9961 9962 9962 9963 9964 9964 9966 9966 9967 9968 9969 9970 9971 9972 9973 9974 9975 9976 9977 9979 9980 9981 9982 9984 9985 9987 9988 9990 9991 9992 9994 9996 9997 9999 10000 10002 10004 10005 10007 10009 10011 10012 10014 10016 10017 10019 10021 10023 10024 10026 10027 10029 10031 10032 10034